Change the Weather History Date:

Monday, February 25, 2013

  Actual Average Record
Temperature  
Mean Temperature 41 °F 41 °F  
Max Temperature 52 °F 54 °F 73 °F (1992)
Min Temperature 29 °F 29 °F 19 °F (1997)
Degree Days  
Heating Degree Days 24 24  
Month to date heating degree days 701 655  
Since 1 July heating degree days 3665 3807  
Cooling Degree Days 0 0  
Month to date cooling degree days 0 0  
Year to date cooling degree days 0 0  
Moisture  
Dew Point 24 °F    
Average Humidity 58    
Maximum Humidity 78    
Minimum Humidity 26    
Precipitation  
Precipitation 0.00 in 0.07 in 1.11 in (1957)
Month to date precipitation 0.33 1.77  
Year to date precipitation 1.04 3.97  
Sea Level Pressure  
Sea Level Pressure 30.30 in    
Wind  
Wind Speed 9 mph (NNW)    
Max Wind Speed 20 mph    
Max Gust Speed 28 mph    
Visibility 10 miles    
Events      
T = Trace of Precipitation, MM = Missing Value Source: NWS Daily Summary

Daily Weather History Graph

Daily Weather History Graph

Search for Another Location

Airport or City:

Trip Planner

Search our weather history database for the weather conditions in past years. The results will help you decide how hot, cold, wet, or windy it might be!

Date:

Astronomy

Feb. 25, 2013 Rise Set
Actual Time 6:50 AM PST 5:55 PM PST
Civil Twilight 6:22 AM PST 6:23 PM PST
Nautical Twilight 5:50 AM PST 6:56 PM PST
Astronomical Twilight 5:17 AM PST 7:28 PM PST
Moon 6:15 PM PST (2/25) 6:23 AM PST (2/25)
Length of Visible Light 12h 01m
Length of Day
11h 05m
Full, 100% of the Moon is Illuminated
Feb 25
Full
Feb 25
Full
Mar 4
Last Quarter
Mar 11
New
Mar 19
First Quarter

Hourly Weather History & Observations

Time (PST) Temp. Windchill Dew Point Humidity Pressure Visibility Wind Dir Wind Speed Gust Speed Precip Events Conditions
12:53 AM 35.1 °F - 26.1 °F 70% 30.27 in 10.0 mi Calm Calm - N/A   Overcast
1:53 AM 33.1 °F 30.0 °F 26.1 °F 75% 30.25 in 10.0 mi WSW 3.5 mph - N/A   Partly Cloudy
2:53 AM 30.9 °F 24.3 °F 25.0 °F 79% 30.24 in 10.0 mi NE 6.9 mph - N/A   Overcast
3:53 AM 34.0 °F 29.8 °F 27.0 °F 75% 30.22 in 10.0 mi SW 4.6 mph - N/A   Overcast
4:53 AM 33.1 °F 26.1 °F 27.0 °F 78% 30.24 in 10.0 mi SSW 8.1 mph - N/A   Overcast
5:53 AM 30.9 °F - 25.0 °F 79% 30.26 in 10.0 mi Calm Calm - N/A   Scattered Clouds
6:53 AM 32.0 °F 27.5 °F 26.1 °F 79% 30.30 in 10.0 mi North 4.6 mph - N/A   Overcast
7:21 AM 35.6 °F - 26.6 °F 70% 30.23 in 10.0 mi Calm Calm - N/A   Overcast
7:50 AM 37.4 °F 33.8 °F 30.2 °F 75% 30.24 in 10.0 mi SW 4.6 mph - N/A   Scattered Clouds
7:53 AM 39.0 °F 34.0 °F 32.0 °F 76% 30.31 in 10.0 mi WSW 6.9 mph - N/A   Scattered Clouds
8:53 AM 42.1 °F 36.6 °F 28.9 °F 60% 30.34 in 10.0 mi WNW 9.2 mph - N/A   Clear
9:53 AM 44.1 °F 37.1 °F 25.0 °F 47% 30.34 in 10.0 mi West 15.0 mph 23.0 mph N/A   Clear
10:53 AM 46.9 °F - 23.0 °F 39% 30.33 in 10.0 mi West 10.4 mph - N/A   Clear
11:53 AM 48.0 °F - 26.1 °F 42% 30.33 in 10.0 mi Variable 4.6 mph - 0.01 in   Scattered Clouds
12:53 PM 48.9 °F - 25.0 °F 39% 30.31 in 10.0 mi NNW 9.2 mph - N/A   Partly Cloudy
1:53 PM 50.0 °F - 18.0 °F 28% 30.29 in 10.0 mi Variable 6.9 mph 16.1 mph N/A   Scattered Clouds
2:35 PM 51.8 °F - 17.6 °F 26% 30.23 in 10.0 mi NW 12.7 mph 17.3 mph N/A   Scattered Clouds
2:53 PM 51.1 °F - 17.1 °F 26% 30.30 in 10.0 mi NNW 13.8 mph 19.6 mph N/A   Partly Cloudy
3:53 PM 48.9 °F - 21.0 °F 33% 30.29 in 10.0 mi North 18.4 mph - N/A   Clear
4:53 PM 45.0 °F 37.6 °F 23.0 °F 42% 30.30 in 10.0 mi NNE 17.3 mph - N/A   Clear
5:53 PM 39.0 °F 31.8 °F 21.0 °F 49% 30.32 in 10.0 mi NE 11.5 mph - N/A   Clear
6:53 PM 37.0 °F 28.5 °F 19.9 °F 50% 30.34 in 10.0 mi NNE 13.8 mph - N/A   Clear
7:53 PM 36.0 °F 27.5 °F 21.0 °F 55% 30.35 in 10.0 mi NNE 12.7 mph - N/A   Clear
8:53 PM 33.1 °F 24.9 °F 21.9 °F 64% 30.35 in 10.0 mi North 10.4 mph - N/A   Clear
9:53 PM 30.0 °F 25.2 °F 21.0 °F 69% 30.40 in 10.0 mi North 4.6 mph - N/A   Clear
10:53 PM 30.0 °F 21.7 °F 21.9 °F 72% 30.40 in 10.0 mi North 9.2 mph - N/A   Scattered Clouds
11:53 PM 33.1 °F 24.4 °F 23.0 °F 66% 30.40 in 10.0 mi NNE 11.5 mph - N/A   Clear